Home   Weather   Syracuse   Past weeks

Flag for USA Past Weather in Syracuse, New York, USA — Yesterday and Last 2 Weeks

Now
81 °F

Passing clouds.


Feels Like: 82 °F
Forecast: 62 / 80 °F
Wind: 12 mph from Northwest

Location: Syracuse Hancock International Airport

Current Time: Aug 20, 2017 at 5:21:43 pm

Latest Report: Aug 20, 2017 at 4:54 pm


Visibility: 10 mi

Pressure: 30.04 "Hg

Humidity: 49%

Dew Point: 60 °F

Location of SyracuseLocation

Past Weather in Syracuse — Graph

°F

Syracuse Temperature Yesterday

Maximum temperature yesterday: 80 °F (at 2:54 pm)
Minimum temperature yesterday: 66 °F (at 2:54 am)
Average temperature yesterday: 72 °F

High & Low Weather Summary for the Past Weeks

 TemperatureHumidityPressure
High87 °F (Aug 18, 3:54 pm)100% (Aug 8, 1:54 am)30.20 "Hg (Aug 8, 1:54 am)
Low51 °F (Aug 17, 4:54 am)39% (Aug 14, 2:54 pm)29.66 "Hg (Aug 18, 5:54 pm)
Average69 °F74%29.96 "Hg
* Reported Aug 5 3:54 pm — Aug 20 3:54 pm, Syracuse. Weather by CustomWeather, © 2017

Note: Actual official high and low records may vary slightly from our data, if they occured in-between our weather recording intervals... More about our weather records

Advertising

Syracuse Weather History for the Previous 24 Hours

Scroll right to see more
 ConditionsComfort  
Time TempWeatherWind HumidityBarometerVisibility
3:54 pm
Sun, Aug 20
81 °FScattered clouds.10 mph51%30.05 "Hg10 mi
2:54 pm80 °FScattered clouds.10 mph51%30.06 "Hg10 mi
1:54 pm78 °FScattered clouds.6 mph54%30.07 "Hg10 mi
12:54 pm77 °FScattered clouds.9 mph54%30.08 "Hg10 mi
11:54 am75 °FScattered clouds.6 mph58%30.07 "Hg10 mi
10:54 am73 °FScattered clouds.9 mph64%30.06 "Hg10 mi
9:54 am70 °FScattered clouds.10 mph76%30.05 "Hg10 mi
8:54 am67 °FScattered clouds.12 mph87%30.04 "Hg10 mi
7:54 am64 °FScattered clouds.10 mph94%30.04 "Hg10 mi
6:54 am62 °FBroken clouds.7 mph96%30.01 "Hg10 mi
5:54 am63 °FPartly cloudy.9 mph97%29.99 "Hg10 mi
4:54 am63 °FPassing clouds.10 mph97%29.96 "Hg10 mi
3:54 am64 °FPartly cloudy.9 mph97%29.94 "Hg10 mi
2:54 am64 °FLight rain. Fog.9 mph97%29.93 "Hg4 mi
1:54 am66 °FPartly cloudy.9 mph87%29.91 "Hg10 mi
12:54 am68 °FPartly cloudy.10 mph78%29.91 "Hg10 mi
11:54 pm
Sat, Aug 19
68 °FPartly cloudy.8 mph76%29.89 "Hg10 mi
10:54 pm68 °FPassing clouds.9 mph76%29.88 "Hg10 mi
9:54 pm69 °FPartly cloudy.7 mph73%29.86 "Hg10 mi
8:54 pm70 °FPartly cloudy.9 mph71%29.84 "Hg10 mi
7:54 pm73 °FBroken clouds.15 mph66%29.82 "Hg10 mi
6:54 pm77 °FScattered clouds.15 mph54%29.78 "Hg10 mi
5:54 pm78 °FScattered clouds.12 mph50%29.78 "Hg10 mi
Weather by CustomWeather, © 2017

See weather overviewHow to use our weather pages